Regional Weather Roundup
Issued by NWS

Home | Current Version | Previous Version | Graphics & Text | Print | Product List | Glossary On
Versions: 1 2 3 4 5 6 7 8 9 10 11 12 13 14 15 16 17 18 19 20 21 22 23 24 25 26 27 28 29 30 31 32 33 34 35 36 37 38 39 40 41 42 43 44 45 46 47 48 49 50
000
ASUS45 KCYS 282110
RWRWY

WYOMING REGIONAL WEATHER ROUNDUP
NATIONAL WEATHER SERVICE CHEYENNE WY
300 PM MDT SAT MAY 28 2016

NOTE:  "FAIR" INDICATES FEW OR NO CLOUDS BELOW 12,000 FEET
WITH NO SIGNIFICANT WEATHER AND/OR OBSTRUCTIONS TO VISIBILITY.

WYZ001-282200-
YELLOWSTONE NATIONAL PARK

CITY           SKY/WX    TMP DP  RH WIND       PRES   REMARKS
LK YELLOWSTONE   N/A     50  23  34 SW5       30.15R
W YELLOWSTONE  NOT AVBL

$$
WYZ002>013-054>058-071-098>099-282200-
NORTHERN WYOMING

CITY           SKY/WX    TMP DP  RH WIND       PRES   REMARKS
JACKSON        MOSUNNY   59  19  21 W12G23    30.07S
CODY           FAIR      61  43  51 NE8       29.98S
GREYBULL       FAIR      68  41  37 VRB6      29.95S
WORLAND        FAIR      68  38  33 NW7       29.95S
SHERIDAN       PTSUNNY   62  44  51 VRB5      29.99S
BUFFALO        PTSUNNY   62  46  55 N6        30.01S
GILLETTE       FAIR      66  45  46 N10       29.96S
HULETT         MOCLDY    64  43  45 NW8       29.96S
NEWCASTLE      FAIR      70  34  26 N12G23    29.93S

$$
WYZ014>020-022>026-101>103-282200-
CENTRAL WYOMING

CITY           SKY/WX    TMP DP  RH WIND       PRES   REMARKS
BIG PINEY      FAIR      60  28  29 W12       30.10R
PINEDALE       MOCLDY    57  28  33 NW9       30.10S
DUBOIS         FAIR      59  14  17 W16G24    30.04S
LANDER         FAIR      68  28  22 W13       29.96F
RIVERTON       FAIR      68  29  23 VRB3      29.98S
CASPER         FAIR      65  41  41 N10       29.97F
DOUGLAS          N/A    N/A N/A N/A MISG      29.98F

$$
WYZ021-027>030-104>119-282200-
SOUTHERN WYOMING

CITY           SKY/WX    TMP DP  RH WIND       PRES   REMARKS
EVANSTON       PTSUNNY   60  32  34 W15G23    30.12R
KEMMERER         N/A     59  32  36 W21G28    30.12S
FORT BRIDGER   MOCLDY    64  32  29 W15G26    30.13S
ROCK SPRINGS   CLOUDY    61  30  31 W21G30    30.08S
DIXON          MOCLDY    64  35  34 W3        30.13F
RAWLINS        CLOUDY    63  29  27 W18       30.08S
SARATOGA       FAIR      55  36  47 W7G20     30.13R
LARAMIE        PTSUNNY   59  32  36 NW22G29   30.09S
CHEYENNE       FAIR      67  32  27 W15G23    30.03R
TORRINGTON     FAIR      72  42  34 N9        29.92S
PINE BLUFFS    MOCLDY    63  45  51 CALM      30.02R

$$



USA.gov is the U.S. government's official web portal to all federal, state and local government web resources and services.